Weather History for Spirit of St Louis, MO

Change the Weather History Date:

Tuesday, January 15, 2013

  Actual Average Record
Temperature  
Mean Temperature 21 °F -  
Max Temperature 30 °F 36 °F - (-1)
Min Temperature 12 °F 18 °F - (-1)
Degree Days  
Heating Degree Days 44    
Moisture  
Dew Point 15 °F    
Average Humidity 72    
Maximum Humidity 85    
Minimum Humidity 56    
Precipitation  
Precipitation 0.00 in - - ()
Sea Level Pressure  
Sea Level Pressure 30.34 in    
Wind  
Wind Speed 2 mph (NNE)    
Max Wind Speed 9 mph    
Max Gust Speed -    
Visibility 10 miles    
Events      
Averages and records for this station are not official NWS values.
T = Trace of Precipitation, MM = Missing Value Source: NWS Daily Summary

Daily Weather History Graph

Daily Weather History Graph

Search for Another Location

Airport:

Trip Planner

Search our weather history database for the weather conditions in past years. The results will help you decide how hot, cold, wet, or windy it might be!

Date:

Astronomy

Jan. 15, 2013 Rise Set
Actual Time 7:18 AM CST 5:05 PM CST
Civil Twilight 6:49 AM CST 5:34 PM CST
Nautical Twilight 6:17 AM CST 6:07 PM CST
Astronomical Twilight 5:45 AM CST 6:39 PM CST
Moon 9:28 AM CST (1/15) 9:51 PM CST (1/15)
Length of Visible Light 10h 44m
Length of Day
9h 46m
Waxing Crescent, 19% of the Moon is Illuminated
Jan 15
Waxing Crescent
Jan 18
First Quarter
Jan 26
Full
Feb 3
Last Quarter
Feb 10
New

Hourly Weather History & Observations

Time (CST) Temp. Windchill Dew Point Humidity Pressure Visibility Wind Dir Wind Speed Gust Speed Precip Events Conditions
12:54 AM 16.0 °F - 10.9 °F 81% 30.46 in 10.0 mi Calm Calm - N/A   Clear
1:54 AM 15.1 °F - 10.9 °F 84% 30.45 in 10.0 mi Calm Calm - N/A   Clear
2:54 AM 14.0 °F - 9.0 °F 80% 30.44 in 10.0 mi Calm Calm - N/A   Clear
3:54 AM 14.0 °F - 10.0 °F 84% 30.43 in 10.0 mi Calm Calm - N/A   Clear
4:54 AM 12.9 °F - 9.0 °F 84% 30.40 in 10.0 mi Calm Calm - N/A   Clear
5:54 AM 12.9 °F - 9.0 °F 84% 30.41 in 10.0 mi Calm Calm - N/A   Clear
6:54 AM 12.0 °F - 8.1 °F 84% 30.44 in 10.0 mi Calm Calm - N/A   Partly Cloudy
7:54 AM 15.1 °F - 9.0 °F 77% 30.45 in 10.0 mi Calm Calm - N/A   Mostly Cloudy
8:54 AM 21.0 °F 13.4 °F 16.0 °F 81% 30.43 in 10.0 mi NE 5.8 mph - N/A   Mostly Cloudy
9:54 AM 23.0 °F 13.1 °F 16.0 °F 74% 30.39 in 10.0 mi ENE 9.2 mph - N/A   Mostly Cloudy
10:54 AM 25.0 °F 19.3 °F 15.1 °F 66% 30.40 in 10.0 mi NNE 4.6 mph - N/A   Overcast
11:54 AM 26.1 °F - 14.0 °F 60% 30.38 in 10.0 mi Calm Calm - N/A   Partly Cloudy
12:54 PM 27.0 °F 21.6 °F 15.1 °F 61% 30.33 in 10.0 mi NE 4.6 mph - N/A   Overcast
1:54 PM 28.9 °F 23.9 °F 15.1 °F 56% 30.32 in 10.0 mi NE 4.6 mph - N/A   Overcast
2:54 PM 30.0 °F 24.1 °F 16.0 °F 56% 30.30 in 10.0 mi North 5.8 mph - N/A   Overcast
3:54 PM 28.9 °F 22.8 °F 17.1 °F 61% 30.29 in 10.0 mi North 5.8 mph - N/A   Overcast
4:54 PM 28.9 °F 21.1 °F 17.1 °F 61% 30.27 in 10.0 mi North 8.1 mph - N/A   Overcast
5:54 PM 28.9 °F 21.1 °F 19.0 °F 67% 30.26 in 10.0 mi NNE 8.1 mph - N/A   Overcast
6:54 PM 28.0 °F 22.8 °F 19.0 °F 69% 30.26 in 10.0 mi NNE 4.6 mph - N/A   Mostly Cloudy
7:54 PM 28.0 °F 24.2 °F 18.0 °F 66% 30.25 in 10.0 mi NNE 3.5 mph - N/A   Overcast
8:54 PM 28.0 °F - 19.0 °F 69% 30.25 in 10.0 mi Calm Calm - N/A   Overcast
9:54 PM 28.0 °F 24.2 °F 19.0 °F 69% 30.22 in 10.0 mi North 3.5 mph - N/A   Overcast
10:54 PM 28.0 °F - 19.0 °F 69% 30.20 in 10.0 mi Calm Calm - N/A   Overcast
11:54 PM 23.0 °F 17.0 °F 19.0 °F 85% 30.20 in 10.0 mi WSW 4.6 mph - N/A   Partly Cloudy